Wakefield, VA

4:13 PM EST on December 14, 2019 (GMT -0500)
Wakefield Municipal

Weather History for KAKQ - October, 2019

Change the Weather History Date:

Friday, October 4, 2019

  Actual Average (WUND) Record (WUND)
Temperature  
Mean Temperature 72 °F -  
Max Temperature 82 °F - - (-1)
Min Temperature 62 °F - - (-1)
Cooling Degree Days 6    
Growing Degree Days 22 (Base 50)    
Moisture  
Dew Point 65 °F    
Average Humidity 77    
Maximum Humidity 96    
Minimum Humidity 45    
Precipitation  
Precipitation 0.00 in - - ()
Sea Level Pressure  
Sea Level Pressure 30.03 in    
Wind  
Wind Speed 3 mph (ENE)    
Max Wind Speed 9 mph    
Max Gust Speed 16 mph    
Visibility 7 miles    
Events      
Averages and records for this station are not official NWS values.
T = Trace of Precipitation, MM = Missing Value Source: NWS Daily Summary

Daily Weather History Graph

Daily Weather History Graph

Search for Another Location

Airport or City:

Astronomy

Oct. 04, 2019 Rise Set
Actual Time 7:05 AM EDT 6:47 PM EDT
Civil Twilight 6:39 AM EDT 7:13 PM EDT
Nautical Twilight 6:09 AM EDT 7:43 PM EDT
Astronomical Twilight 5:39 AM EDT 8:13 PM EDT
Moon 1:27 PM EDT (10/4) 11:22 PM EDT (10/4)
Length of Visible Light 12h 33m
Length of Day
11h 41m
Waxing Crescent, 39% of the Moon is Illuminated
Oct 4
Waxing Crescent
Oct 5
First Quarter
Oct 13
Full
Oct 21
Last Quarter
Oct 27
New

Hourly Weather History & Observations

Time (EDT) Temp. Heat Index Dew Point Humidity Pressure Visibility Wind Dir Wind Speed Gust Speed Precip Events Conditions
12:54 AM 72.0 °F - 70.0 °F 93% 29.92 in 3.0 mi Calm Calm - N/A   Clear
1:38 AM 72.0 °F - 70.0 °F 93% 29.92 in 1.8 mi Calm Calm - N/A   Clear
1:54 AM 71.1 °F - 69.1 °F 93% 29.92 in 1.0 mi Calm Calm - N/A   Clear
2:12 AM 72.0 °F - 69.1 °F 91% 29.92 in 2.5 mi Calm Calm - N/A   Clear
2:54 AM 69.1 °F - 68.0 °F 96% 29.91 in 2.0 mi Calm Calm - N/A   Clear
3:41 AM 71.1 °F - 69.1 °F 93% 29.90 in 3.0 mi South 3.5 mph - N/A   Clear
3:54 AM 72.0 °F - 69.1 °F 91% 29.90 in 5.0 mi SSW 3.5 mph - N/A   Clear
4:54 AM 71.1 °F - 68.0 °F 90% 29.91 in 6.0 mi SW 4.6 mph - N/A   Clear
5:54 AM 71.1 °F - 66.9 °F 87% 29.93 in 5.0 mi Calm Calm - N/A   Clear
6:54 AM 71.1 °F - 66.9 °F 87% 29.97 in 7.0 mi North 4.6 mph - N/A   Mostly Cloudy
7:02 AM 71.1 °F - 68.0 °F 90% 29.97 in 6.0 mi Variable 3.5 mph - N/A   Mostly Cloudy
7:41 AM 72.0 °F - 70.0 °F 93% 29.99 in 0.8 mi Variable 3.5 mph - N/A   Overcast
7:54 AM 72.0 °F - 70.0 °F 93% 29.99 in 0.8 mi Variable 4.6 mph - N/A   Overcast
8:08 AM 73.0 °F - 70.0 °F 90% 30.00 in 1.2 mi Variable 3.5 mph - N/A   Overcast
8:20 AM 73.0 °F - 71.1 °F 93% 30.00 in 2.5 mi North 4.6 mph - N/A   Overcast
8:27 AM 73.0 °F - 71.1 °F 93% 30.01 in 3.0 mi Variable 4.6 mph - N/A   Overcast
8:54 AM 73.9 °F - 71.1 °F 91% 30.02 in 6.0 mi NNE 6.9 mph - N/A   Overcast
9:02 AM 75.0 °F - 70.0 °F 84% 30.02 in 6.0 mi Variable 4.6 mph - N/A   Haze
9:54 AM 77.0 °F - 70.0 °F 79% 30.04 in 8.0 mi NE 3.5 mph - N/A   Overcast
10:54 AM 78.1 °F - 66.9 °F 68% 30.04 in 10.0 mi Variable 6.9 mph - N/A   Overcast
11:13 AM 78.1 °F - 66.9 °F 68% 30.05 in 10.0 mi Variable 4.6 mph - N/A   Overcast
11:21 AM 77.0 °F - 66.9 °F 71% 30.05 in 10.0 mi NE 9.2 mph 16.1 mph N/A   Overcast
11:54 AM 75.9 °F - 66.0 °F 71% 30.06 in 10.0 mi East 6.9 mph - N/A   Overcast
12:09 PM 77.0 °F - 66.0 °F 69% 30.06 in 10.0 mi ENE 8.1 mph - N/A   Overcast
12:54 PM 80.1 °F 81.7 °F 64.0 °F 58% 30.07 in 10.0 mi Variable 5.8 mph - N/A   Overcast
1:54 PM 79.0 °F - 61.0 °F 54% 30.06 in 10.0 mi East 8.1 mph - N/A   Overcast
2:54 PM 80.1 °F 80.7 °F 59.0 °F 48% 30.06 in 10.0 mi ENE 4.6 mph - N/A   Overcast
3:54 PM 81.0 °F 81.1 °F 57.9 °F 45% 30.05 in 10.0 mi Variable 5.8 mph - N/A   Mostly Cloudy
4:54 PM 75.9 °F - 57.9 °F 54% 30.07 in 10.0 mi East 8.1 mph - N/A   Clear
5:54 PM 75.9 °F - 57.9 °F 54% 30.09 in 10.0 mi East 6.9 mph - N/A   Clear
6:54 PM 71.1 °F - 57.0 °F 61% 30.12 in 10.0 mi Calm Calm - N/A   Clear
7:54 PM 68.0 °F - 55.0 °F 63% 30.14 in 10.0 mi East 4.6 mph - N/A   Clear
8:54 PM 64.9 °F - 55.0 °F 70% 30.16 in 10.0 mi Calm Calm - N/A   Clear
9:54 PM 63.0 °F - 55.0 °F 75% 30.18 in 10.0 mi Calm Calm - N/A   Clear
10:54 PM 62.1 °F - 53.1 °F 72% 30.21 in 10.0 mi Calm Calm - N/A   Clear
11:54 PM 64.0 °F - 52.0 °F 65% 30.23 in 10.0 mi NE 4.6 mph - N/A   Clear